Location: Newark
(52.8300°N, 8.0000°E)
Time: 17:27:59
(UTC+00:00)

STARLINK-1076 - Pass Details

Date: 31 January 2020
Orbit: 348 x 351 km, 53.0° (Epoch: 19 February)

Event Time Altitude Azimuth Distance (km) Brightness Sun altitude
Rises 16:57:36 0° 283° (WNW) 2,169 7.8 -7.4°
Reaches altitude 10° 16:59:40 10° 277° (W) 1,324 6.8 -7.7°
Maximum altitude 17:02:29 42° 204° (SSW) 521 3.9 -8.1°
Drops below altitude 10° 17:05:17 10° 132° (SE) 1,320 5.3 -8.5°
Enters shadow 17:06:53 - 126° (SE) 1,971 6.1 -8.7°
